metlocid,date_time,avg_airt3m,std_airt3m,min_airt3m,max_airt3m,n_airt3m,avg_airt1m,std_airt1m,min_airt1m,max_airt1m,n_airt1m,n_comments
BOYM,11/1/93,-4.647190891,1.506837987,-7.69,1.76,922,,,,,0,0
BOYM,12/1/93,-3.142697134,2.772346501,-9.4,4.88,4464,,,,,0,0
BOYM,1/1/94,0.703455641,2.088520264,-9.52,6.76,1826,,,,,0,0
BOYM,2/1/94,-10.06607146,5.017263939,-22.77,-1.03,224,,,,,0,0
BOYM,3/1/94,-23.03999993,5.185559467,-34.91,-12.22,248,,,,,0,0
BOYM,4/1/94,-19.95266662,6.968836467,-34.53,-3.63,240,,,,,0,0
BOYM,5/1/94,-29.90129041,6.825740528,-41.91,-14.08,248,,,,,0,0
BOYM,6/1/94,-26.63725009,8.565289268,-41.37,-8.64,240,,,,,0,0
BOYM,7/1/94,-27.05487902,11.48820942,-44.51,-3.83,248,,,,,0,0
BOYM,8/1/94,-33.93834676,11.01767511,-46.82,-10.49,248,,,,,0,0
BOYM,9/1/94,-28.60595838,8.1450261,-39.58,-7.05,240,,,,,0,0
BOYM,10/1/94,-16.21012098,5.96210776,-28.93,-3.7,248,,,,,0,0
BOYM,11/1/94,-7.608724316,2.388049696,-13.72,2.23,1411,,,,,0,0
BOYM,12/1/94,-1.968010753,2.316445674,-9.61,3.15,2232,,,,,0,0
BOYM,1/1/95,-1.89723643,2.165893305,-7.28,4.09,2229,,,,,0,0
BOYM,2/1/95,-6.323437498,4.663679702,-17.84,5.44,2016,,,,,0,0
BOYM,3/1/95,-21.42555556,7.440176426,-33.99,-5.23,2232,,,,,0,0
BOYM,4/1/95,-27.13366666,8.251000477,-41.32,-7.01,2160,,,,,0,0
BOYM,5/1/95,-27.78429214,8.993928932,-43.91,-8.4,2232,,,,,0,0
BOYM,6/1/95,-24.11019911,10.24578347,-45.37,-3.48,2160,,,,,0,0
BOYM,7/1/95,-27.16435099,7.632814473,-41.68,-6.6,2080,,,,,0,0
BOYM,11/1/95,-3.2110029,3.601564897,-12.89,4.66,1725,,,,,0,0
BOYM,12/1/95,0.103911291,2.282530182,-8.25,8.14,2976,,,,,0,0
BOYM,1/1/96,-1.335287588,2.043417483,-7.43,6.43,2973,,,,,0,0
BOYM,2/1/96,-6.105481322,5.475288874,-18.62,5.02,2784,,,,,0,0
BOYM,3/1/96,-15.87074935,6.845102714,-30.61,2.82,2976,,,,,0,0
BOYM,4/1/96,-17.76724999,8.367225615,-31.48,-0.87,2880,,,,,0,0
BOYM,5/1/96,-28.3506082,8.728242034,-44.71,-8.76,2976,,,,,0,0
BOYM,6/1/96,-26.28649304,8.669275187,-41.14,-6.73,2880,,,,,0,0
BOYM,7/1/96,-26.1063575,9.042536505,-42.08,-7.22,2976,,,,,0,0
BOYM,8/1/96,-20.57352823,9.930071968,-37.61,1.14,2976,,,,,0,0
BOYM,9/1/96,-27.48819792,6.795010878,-38.27,-11.36,2880,,,,,0,0
BOYM,10/1/96,-18.74213708,6.099961508,-35.03,-6.18,2976,,,,,0,0
BOYM,11/1/96,-5.831876296,5.131242062,-21.51,4.77,2878,,,,,0,0
BOYM,12/1/96,0.029180107,2.059529227,-5.13,7.22,2976,,,,,0,0
BOYM,1/1/97,-1.717258064,2.448998193,-7.01,4.47,2976,,,,,0,0
BOYM,2/1/97,-9.539744459,4.410133735,-20.7,-0.84,2661,,,,,0,0
BOYM,3/1/97,-22.58489246,5.987005072,-35.07,-7.12,2976,,,,,0,0
BOYM,4/1/97,-28.02341394,8.357708618,-43.5,-6.87,2853,,,,,0,0
BOYM,5/1/97,-22.77181788,10.29460103,-44.15,-4.18,2976,,,,,0,0
BOYM,6/1/97,-22.27505555,9.693362245,-43.63,-6.55,2880,,,,,0,0
BOYM,7/1/97,-32.1114891,10.64240794,-47.52,-11.72,2948,,,,,0,0
BOYM,8/1/97,-32.41664649,10.06791292,-47.42,-10.74,2976,,,,,0,0
BOYM,9/1/97,-24.24724652,10.70370397,-44.75,0.78,2880,,,,,0,0
BOYM,10/1/97,-12.6019926,5.2843757,-27.22,-2.41,2976,,,,,0,0
BOYM,11/1/97,-2.710324386,5.547568008,-21.3,5.26,2867,,,,,0,0
BOYM,12/1/97,-2.291310485,3.201038827,-8.65,5.39,2976,,,,,0,0
BOYM,1/1/98,-2.646918682,2.635411255,-9.52,6.37,2976,,,,,0,0
BOYM,2/1/98,-6.335833333,3.747967957,-16.92,3.78,2688,,,,,0,0
BOYM,3/1/98,-20.0419758,5.840517988,-34.76,-7.52,2976,,,,,0,0
BOYM,4/1/98,-31.93323959,10.31947037,-46.82,-4.48,2880,,,,,0,0
BOYM,5/1/98,-25.08394488,9.37433097,-41.51,-3.85,2976,,,,,0,0
BOYM,6/1/98,-18.65068403,7.405039986,-34.3,-5.16,2880,,,,,0,0
BOYM,7/1/98,-16.20044137,5.124492153,-26.78,-8.93,725,,,,,0,0
BOYM,11/1/98,-6.505584923,2.89168363,-14.2,0.84,1778,,,,,0,0
BOYM,12/1/98,-1.529556452,2.879065619,-9.53,8.96,2976,,,,,0,0
BOYM,1/1/99,-0.477997311,2.330444273,-6.35,6.18,2976,,,,,0,0
BOYM,2/1/99,-7.671346732,5.234981721,-20.85,1.64,2688,,,,,0,0
BOYM,3/1/99,-22.66417675,7.495508858,-36.89,-5.87,2976,,,,,0,0
BOYM,4/1/99,-29.61592361,9.582189793,-42.81,-5.73,2880,,,,,0,0
BOYM,5/1/99,-30.78936157,10.36766399,-47.89,-6.44,2976,,,,,0,0
BOYM,6/1/99,-23.72538541,8.987000575,-41.55,-4.57,2880,,,,,0,0
BOYM,7/1/99,-21.85739248,9.574495688,-39.45,-5.89,2976,,,,,0,0
BOYM,8/1/99,-34.29949598,10.95962073,-47.94,-10.18,2976,,,,,0,0
BOYM,9/1/99,-22.87637499,8.851704324,-43.5,-2.02,2880,,,,,0,0
BOYM,10/1/99,-15.3007829,5.676123978,-30.67,-2.12,2976,,,,,0,0
BOYM,11/1/99,-5.234097225,3.764438279,-15.69,2.54,2880,,,,,0,0
BOYM,12/1/99,-1.480410223,1.847277477,-6.81,3.87,2974,,,,,0,1
BOYM,1/1/00,-2.130692201,2.422032042,-9.69,4.27,2976,,,,,0,0
BOYM,2/1/00,-7.739716236,3.471350693,-17.7,1.99,2784,,,,,0,0
BOYM,3/1/00,-17.95478495,7.49758509,-35.87,-2.13,2976,,,,,0,0
BOYM,4/1/00,-21.68643133,9.034420477,-37.46,-0.72,2861,,,,,0,19
BOYM,5/1/00,-27.75121639,9.972902385,-44.44,-6.46,2976,,,,,0,0
BOYM,6/1/00,-30.68389238,12.54336879,-45.25,-1.67,2880,,,,,0,0
BOYM,7/1/00,-22.28572243,9.196499554,-45.36,-4.94,2976,,,,,0,0
BOYM,8/1/00,-26.07991936,10.72109108,-43.69,-5.33,2976,,,,,0,0
BOYM,9/1/00,-24.90441667,11.28220229,-42.51,-5.16,2880,,,,,0,0
BOYM,10/1/00,-20.88465098,5.368692016,-31.95,-4.25,2550,,,,,0,0
BOYM,11/1/00,-2.917380589,2.996039678,-10.64,2.61,1298,,,,,0,2
BOYM,12/1/00,-2.337792341,2.022017332,-6.97,3.88,2976,,,,,0,0
BOYM,1/1/01,-3.474539655,3.007749936,-9.43,6.64,2976,,,,,0,0
BOYM,2/1/01,-6.151800593,3.529718544,-16.55,3.94,2688,,,,,0,0
BOYM,3/1/01,-20.75796369,6.526941739,-31.07,-0.47,2976,,,,,0,0
BOYM,4/1/01,-23.13540278,8.443682305,-38.24,-3.06,2880,,,,,0,0
BOYM,5/1/01,-23.52931451,10.01029377,-41.22,-4.39,2976,,,,,0,0
BOYM,6/1/01,-22.47006598,8.293027405,-38.33,-3.62,2880,,,,,0,0
BOYM,7/1/01,-25.96517136,8.186067264,-42.01,-6.16,2976,,,,,0,0
BOYM,8/1/01,-36.98300063,6.546261156,-47.66,-16.08,2976,,,,,0,0
BOYM,9/1/01,-27.29129515,9.918558167,-42.7,-4.9,2880,,,,,0,0
BOYM,10/1/01,-17.40109542,6.904544641,-35.27,-3.79,2976,,,,,0,0
BOYM,11/1/01,-6.647670135,4.025862147,-19.17,1.7,2880,,,,,0,0
BOYM,12/1/01,0.45500336,3.198659406,-6.89,10.64,2976,,,,,0,0
BOYM,1/1/02,0.431814503,3.322749535,-8.15,10.62,2965,,,,,0,11
BOYM,2/1/02,-6.305111614,4.096458836,-17,2.87,2688,,,,,0,0
BOYM,3/1/02,-15.63257728,5.077137341,-27.29,-4.17,2976,,,,,0,0
BOYM,4/1/02,-24.71323957,8.566980422,-36.65,-6.27,2880,,,,,0,0
BOYM,5/1/02,-20.72330308,8.645594659,-37.97,-3.78,2976,,,,,0,0
BOYM,6/1/02,-31.50478832,8.879359036,-40.97,-8.24,2880,,,,,0,362
BOYM,7/1/02,-32.1013611,9.335839965,-40.97,-9.39,2976,,,,,0,576
BOYM,8/1/02,-32.31801769,8.302312611,-40.97,-9.75,2976,,,,,0,544
BOYM,9/1/02,-25.55853474,9.362051295,-40.97,-4.1,2880,,,,,0,51
BOYM,10/1/02,-18.95828964,6.010136349,-31.76,-4.84,2976,,,,,0,0
BOYM,11/1/02,-9.088777778,2.616713043,-16.36,-2.91,2880,,,,,0,0
BOYM,12/1/02,-2.622885,3.006344554,-11.86,3.82,2974,,,,,0,2
BOYM,1/1/03,-0.433360378,2.77704059,-8.36,8.92,2958,,,,,0,18
BOYM,2/1/03,-6.601037951,3.119463808,-15.66,2.59,2688,,,,,0,0
BOYM,3/1/03,-20.44038643,7.555319253,-36.18,-3.8,2976,,,,,0,0
BOYM,4/1/03,-27.98191666,7.913142642,-39.06,-2.38,2880,,,,,0,0
BOYM,5/1/03,-20.29270161,10.36317894,-39.8,-0.55,2976,,,,,0,0
BOYM,6/1/03,-25.95746181,8.509237998,-41.68,-7.06,2880,,,,,0,0
BOYM,7/1/03,-20.92816667,5.75696099,-29.51,-10.4,240,,,,,0,2736
BOYM,8/1/03,,,,,0,,,,,0,2976
BOYM,9/1/03,-20.20366745,7.572075847,-37.19,-8.36,2075,,,,,0,805
BOYM,10/1/03,-13.96992608,4.025434054,-30.44,-3.23,2976,,,,,0,0
BOYM,11/1/03,-8.082836807,3.102542756,-17.67,0.95,2880,,,,,0,0
BOYM,12/1/03,-0.690299057,2.985921038,-7.74,6.91,2976,,,,,0,0
BOYM,1/1/04,-2.216637526,2.892299366,-9.71,8.81,2974,,,,,0,2
BOYM,2/1/04,-8.673336928,4.207358577,-21.43,0.47,2784,,,,,0,0
BOYM,3/1/04,-24.76984878,5.953443136,-35.68,-7.71,2976,,,,,0,0
BOYM,4/1/04,-24.89055901,8.299928806,-39.91,-8.75,2880,,,,,0,0
BOYM,5/1/04,-29.66551074,10.34288211,-44.08,-3.83,2976,,,,,0,0
BOYM,6/1/04,-24.22539581,9.853483096,-42.84,-4.74,2880,,,,,0,0
BOYM,7/1/04,-35.21481184,8.746408527,-47.07,-10.52,2976,,,,,0,0
BOYM,8/1/04,-27.9009039,8.950726796,-43.89,-6.01,2976,,,,,0,0
BOYM,9/1/04,-27.281375,6.363956368,-37.98,-10.05,2880,,,,,0,0
BOYM,10/1/04,-18.01824598,8.271531067,-39.74,-3.17,2976,,,,,0,0
BOYM,11/1/04,-5.154625007,4.193515905,-16.33,5.23,2880,,,,,0,0
BOYM,12/1/04,-0.154727824,2.01251406,-7.41,5.3,2976,,,,,0,0
BOYM,1/1/05,-0.739969758,2.769578935,-10.37,7.92,2976,,,,,0,0
BOYM,2/1/05,-7.984933036,4.881949634,-21.56,3.67,2688,,,,,0,0
BOYM,3/1/05,-20.30640793,5.804942059,-30.91,-5.63,2976,,,,,0,0
BOYM,4/1/05,-27.64577777,7.740530297,-41.17,-10.34,2880,,,,,0,0
BOYM,5/1/05,-22.13016463,8.628352915,-38.5,-6.38,2976,,,,,0,0
BOYM,6/1/05,-27.66893399,9.521230624,-44.37,-4.69,2880,,,,,0,0
BOYM,7/1/05,-29.65343746,11.01980605,-45.06,-3.66,2976,,,,,0,0
BOYM,8/1/05,-28.56719758,8.750767841,-42.8,-7.98,2976,,,,,0,0
BOYM,9/1/05,-24.58486805,11.32282819,-42.1,2.26,2880,,,,,0,0
BOYM,10/1/05,-14.80815525,6.480840032,-28.48,-1.13,2976,,,,,0,0
BOYM,11/1/05,-6.729493052,3.06727478,-15.22,1.43,2880,,,,,0,0
BOYM,12/1/05,0.162247984,2.264650091,-6.96,6.05,2976,,,,,0,0
BOYM,1/1/06,-1.185658602,2.267996689,-7.82,6.27,2976,,,,,0,0
BOYM,2/1/06,-6.893273809,3.624816295,-21.48,1.54,2688,,,,,0,0
BOYM,3/1/06,-19.34992272,6.573434057,-32.3,-6.05,2976,,,,,0,0
BOYM,4/1/06,-30.43561805,7.974258165,-44.11,-9.27,2880,,,,,0,0
BOYM,5/1/06,-30.69887768,11.65898289,-45.92,-3.32,2976,,,,,0,0
BOYM,6/1/06,-23.84841319,11.22197416,-44.28,-4.44,2880,,,,,0,0
BOYM,7/1/06,-34.87908602,9.019586662,-46.05,-9.38,2976,,,,,0,0
BOYM,8/1/06,-20.96728829,8.296050154,-36.09,-6.12,2976,,,,,0,0
BOYM,9/1/06,-23.34297918,8.805810713,-41.27,-5.14,2880,,,,,0,0
BOYM,10/1/06,-19.48710684,5.428155292,-33.12,-5.3,2976,,,,,0,0
BOYM,11/1/06,-7.218822917,5.384505603,-20.52,4.74,2880,,,,,0,0
BOYM,12/1/06,-2.959378357,2.682434421,-9.99,4.99,2976,,,,,0,0
BOYM,1/1/07,1.208202366,2.235567199,-5.36,7.55,2876,,,,,0,9
BOYM,2/1/07,-8.798002238,6.148044199,-28.27,1.44,2688,,,,,0,0
BOYM,3/1/07,-17.92198253,6.497003223,-30.22,-1.28,2976,,,,,0,0
BOYM,4/1/07,-25.90914584,8.666112065,-40.75,-7.15,2880,,,,,0,0
BOYM,5/1/07,-21.11933468,11.35852355,-41.35,-1.88,2976,,,,,0,0
BOYM,6/1/07,-21.37371527,8.826759834,-41.02,-3.33,2880,,,,,0,0
BOYM,7/1/07,-23.21866261,9.412665553,-42.43,-5.46,2976,,,,,0,0
BOYM,8/1/07,-23.41990926,8.375647125,-39.93,-0.31,2976,,,,,0,0
BOYM,9/1/07,-20.31826041,6.778230989,-36.09,-5.08,2880,,,,,0,0
BOYM,10/1/07,-18.00127028,5.73617579,-33.87,-6.15,2960,,,,,0,0
BOYM,11/1/07,-3.682774673,1.912565362,-7.12,0.44,537,,,,,0,0
BOYM,12/1/07,-0.87373235,3.447935337,-9.89,7.04,2974,,,,,0,0
BOYM,1/1/08,-0.383225805,2.552355409,-7.82,6.93,2976,,,,,0,0
BOYM,2/1/08,-8.555603447,3.504096928,-17.25,-0.78,2784,,,,,0,0
BOYM,3/1/08,-17.38018816,7.933899006,-31.54,0.76,2976,,,,,0,0
BOYM,4/1/08,-21.01332987,7.497955877,-33.27,-3.92,2880,,,,,0,0
BOYM,5/1/08,-25.51262098,8.414165866,-40.49,-4.62,2976,,,,,0,0
BOYM,6/1/08,-17.33725346,7.342595854,-34.03,-2.37,2880,,,,,0,0
BOYM,7/1/08,-30.07141128,9.932675672,-43.48,-6.72,2976,,,,,0,0
BOYM,8/1/08,-33.50405241,8.278726343,-48.26,-9.35,2976,,,,,0,0
BOYM,9/1/08,-16.94591665,6.441319123,-36.78,-6.09,2880,,,,,0,0
BOYM,10/1/08,-15.98632391,5.044957674,-29.3,-5.86,2976,,,,,0,0
BOYM,11/1/08,-8.238652777,4.273588403,-19.53,1.33,2880,,,,,0,0
BOYM,12/1/08,-0.27125336,2.994955762,-7.86,8.43,2976,,,,,0,0
BOYM,1/1/09,-0.8072043,2.411569296,-7.26,5.99,2976,,,,,0,0
BOYM,2/1/09,-9.952935275,5.851055708,-23.72,1.93,2688,,,,,0,0
BOYM,3/1/09,-21.40444893,6.290665549,-32.82,-3.76,2976,,,,,0,0
BOYM,4/1/09,-18.48759029,6.93818136,-33.85,-7.2,2880,,,,,0,0
BOYM,5/1/09,-27.37229167,11.15553825,-43.21,-4.96,2976,,,,,0,0
BOYM,6/1/09,-23.87408678,9.88876807,-44.01,-4.5,2880,,,,,0,0
BOYM,7/1/09,-23.89194557,9.234417278,-38.28,-3.45,2976,,,,,0,0
BOYM,8/1/09,-28.35342069,7.732251472,-41.35,-12.43,2976,,,,,0,0
BOYM,9/1/09,-24.46594794,9.359443215,-43.64,-2.75,2880,,,,,0,0
BOYM,10/1/09,-18.35854839,5.101531245,-30.34,-4.68,2976,,,,,0,0
BOYM,11/1/09,-4.407930555,4.612091505,-15.53,5.55,2880,,,,,0,0
BOYM,12/1/09,-0.675872271,2.378418285,-7.06,5.5,2975,,,,,0,0
BOYM,1/1/10,-0.943820563,2.402279623,-8.37,5.51,2976,,,,,0,0
BOYM,2/1/10,-7.499668896,4.706113031,-20.17,1.71,2688,,,,,0,0
BOYM,3/1/10,-17.69373992,8.328802864,-34.56,0.17,2976,,,,,0,0
BOYM,4/1/10,-22.56202431,6.951144151,-35.64,-6.31,2880,,,,,0,0
BOYM,5/1/10,-26.00060147,9.194894177,-43.4,-8.19,2976,,,,,0,0
BOYM,6/1/10,-28.24629168,9.101809298,-40.7,-7.14,2880,,,,,0,0
BOYM,7/1/10,-29.39764785,10.1672818,-45.51,-8.24,2976,,,,,0,0
BOYM,8/1/10,-26.68570902,9.001009721,-43.44,-8.02,2976,,,,,0,0
BOYM,9/1/10,-28.38302773,7.870232871,-43.91,-9.2,2880,,,,,0,0
BOYM,10/1/10,-16.2621102,5.527431165,-36.98,0.03,2976,,,,,0,0
BOYM,11/1/10,-5.674763893,3.241133367,-13.22,4.78,2880,,,,,0,0
BOYM,12/1/10,0.32206989,3.30535453,-11.13,9.82,2976,,,,,0,0
BOYM,1/1/11,-2.105376344,3.284642164,-10.24,7.75,2976,,,,,0,0
BOYM,2/1/11,-7.062403274,3.431406574,-18.61,-0.03,2688,,,,,0,0
BOYM,3/1/11,-18.22494959,6.285379288,-31.07,-3.1,2976,,,,,0,0
BOYM,4/1/11,-20.95236807,8.353875281,-36.73,-0.78,2880,,,,,0,0
BOYM,5/1/11,-25.35440524,9.106631003,-40.49,-7.08,2976,,,,,0,0
BOYM,6/1/11,-21.98603821,11.24275524,-43.08,-4.68,2880,,,,,0,0
BOYM,7/1/11,-21.42635078,10.99690058,-44.67,-3.09,2976,,,,,0,0
BOYM,8/1/11,-22.75111895,10.92177589,-42.25,-2.78,2976,,,,,0,0
BOYM,9/1/11,-22.7002361,9.141013937,-37.93,-5.35,2880,,,,,0,0
BOYM,10/1/11,-15.98390793,6.004226992,-31.42,-2.83,2976,,,,,0,0
BOYM,11/1/11,-4.295333339,3.671119391,-20.45,4.27,2880,,,,,0,0
BOYM,12/1/11,-0.481989917,2.993886874,-7.21,8.32,2975,3.204914572,2.67372657,-4.66,10.06,995,0
BOYM,1/1/12,-1.277368952,2.802066243,-9.44,5.98,2976,-0.480262096,3.056310096,-9.22,7.59,2976,0
BOYM,2/1/12,-6.417546696,4.211916785,-17.35,3.22,2784,-6.037223415,4.332626214,-17.39,3.63,2784,0
BOYM,3/1/12,-16.62094756,5.928039124,-31.4,-3.92,2976,-16.78164651,6.079689135,-31.98,-3.84,2976,0
BOYM,4/1/12,-22.27398264,8.195958545,-37.4,-3.86,2880,-22.85247221,8.447491475,-38.24,-4.05,2880,0
BOYM,5/1/12,-17.5756586,8.176027508,-34.24,-2.19,2976,-17.93359881,8.413036093,-35.28,-2.3,2976,0
BOYM,6/1/12,-26.03569444,8.697932866,-39.24,-6.7,2880,-26.6666111,8.925335136,-40.32,-6.97,2880,0
BOYM,7/1/12,-30.60363238,9.122272138,-43.28,-11.46,2976,-31.32077286,9.352099388,-44.41,-11.8,2976,0
BOYM,8/1/12,-24.92367944,8.954241108,-42.5,-7.42,2976,-25.39370968,9.163036982,-43.11,-7.69,2976,0
BOYM,9/1/12,-24.15303124,7.824739364,-40.62,-8.66,2880,-24.59724306,7.96671885,-41.65,-9.01,2880,0
BOYM,10/1/12,-16.52431115,4.902796318,-32.77,-6.65,2976,-16.32446909,5.136083194,-33.21,-6.42,2976,0
BOYM,11/1/12,-7.18922569,4.288547335,-20,0.85,2880,-6.503003472,4.54689514,-19.93,2.1,2880,0
BOYM,12/1/12,0.089015457,2.673849287,-6.31,7.4,2976,1.20640309,2.754829893,-5.8,8.89,2719,0
BOYM,1/1/13,-1.083538307,2.954757538,-16.58,6.89,2976,-0.364532929,3.299902367,-16.93,8.6,2976,0
BOYM,2/1/13,-9.844110867,4.158473092,-21.92,-1.28,2688,-9.465011166,4.344014627,-22.26,-0.97,2688,0
BOYM,3/1/13,-18.79505042,7.554525387,-35.73,-2.36,2976,-14.81985508,2.691622374,-21.94,-8.4,414,0
BOYM,4/1/13,-30.65273266,9.232307071,-44.19,-6.59,2880,,,,,0,0
BOYM,5/1/13,-22.60152888,9.225226178,-38.84,-5.53,2976,,,,,0,0
BOYM,6/1/13,-25.58934724,8.737535565,-45.22,-4.66,2880,,,,,0,0
BOYM,7/1/13,-31.56873993,8.819296181,-46.12,-10.15,2976,,,,,0,0
BOYM,8/1/13,-25.84793345,9.952296713,-40.49,-2.68,2976,,,,,0,0
BOYM,9/1/13,-19.7192743,8.267029751,-38.44,-1.81,2880,,,,,0,0
BOYM,10/1/13,-17.56081652,6.573071967,-34.2,-2.48,2976,,,,,0,0
BOYM,11/1/13,-7.338326389,5.618865775,-21.75,4.99,2880,,,,,0,0
BOYM,12/1/13,-0.214744624,2.221770666,-5.8,6.02,2976,,,,,0,0
BOYM,1/1/14,0.400372985,2.827848742,-7.93,6.89,2976,0.375444676,2.819836301,-7.77,7.1,2395,2395
BOYM,2/1/14,-6.816376483,4.00193492,-18.44,1.95,2688,-6.405718012,4.140785134,-18.65,2.64,2688,2688
BOYM,3/1/14,-18.57582996,6.827594084,-35.65,-6.97,2976,-18.75363575,7.082140089,-36.58,-6.31,2976,2976
BOYM,4/1/14,-21.75378472,8.602552957,-37.95,-0.91,2880,-22.26240974,8.778213577,-38.83,-1.12,2880,2880
BOYM,5/1/14,-21.75591063,11.35278825,-39,-1.63,2976,-22.32480846,11.6469713,-40.05,-1.79,2976,2976
BOYM,6/1/14,-25.68475345,7.824691682,-40.91,-9.63,2880,-26.36263885,8.045501803,-41.76,-9.8,2880,2880
BOYM,7/1/14,-35.14590726,11.1260429,-47.8,-4.37,2976,-36.05193884,11.3237195,-48.85,-4.67,2976,2976
BOYM,8/1/14,-20.7079637,9.492185583,-43.72,-3.04,2976,-21.14269824,9.711974746,-44.73,-3.34,2976,2976
BOYM,9/1/14,-17.018625,7.191122364,-31.73,-3.79,2880,-17.35161112,7.302697863,-32.28,-3.86,2880,2880
BOYM,10/1/14,-12.96917003,4.890543936,-26.17,0.24,2976,-12.85128695,5.014957035,-26.7,1.06,2976,2976
BOYM,11/1/14,-7.617813369,3.441026369,-17.75,0.21,2872,-6.935100978,3.746900981,-17.85,1.7,2872,2872
BOYM,12/1/14,-2.50349462,2.581593593,-10.55,3.48,2976,-1.721643148,2.817305293,-10.39,5.02,2976,2976
BOYM,1/1/15,-0.539855513,2.409304796,-7.27,6.84,2976,0.127523522,2.687844475,-7.24,8.83,2976,2976
BOYM,2/1/15,-4.113355653,3.532325323,-12.32,2.33,2688,-3.761343004,3.694165363,-12.48,3.62,2688,2688
BOYM,3/1/15,-20.62821574,7.097410724,-31.72,-4.04,2976,-21.0219758,7.467822578,-32.64,-3.14,2976,2976
BOYM,4/1/15,-29.01658049,6.062557689,-41.42,-12.79,2360,-29.80884319,6.29861064,-42.5,-13.24,2360,2360
BOYM,5/1/15,-30.5851747,7.808671194,-42.3,-7.19,2976,-31.45698924,7.937079618,-43.37,-7.73,2976,2976
BOYM,6/1/15,-26.51852432,8.382856589,-41.12,-6.05,2880,-27.221375,8.490317591,-41.95,-6.65,2880,2880
BOYM,7/1/15,-27.25579972,8.296442971,-43.3,-8.66,2976,-27.94790995,8.460477468,-44.23,-9.2,2976,2976
BOYM,8/1/15,-25.99714381,8.898787299,-41.33,-8.96,2976,-26.66219421,9.140049466,-42.3,-9.41,2976,2976
BOYM,9/1/15,-27.59404045,9.028006685,-45.31,-7.94,2720,-28.16563968,9.279883997,-46.26,-8.3,2720,2720
BOYM,10/1/15,-13.88556788,5.022700673,-27.72,-4.68,2976,-13.77891465,5.092584915,-28.12,-4.45,2976,2976
BOYM,11/1/15,-6.791971429,5.583965384,-20.85,4.52,2871,-6.272082906,5.721009084,-20.6,6.38,2871,1700
BOYM,12/1/15,-0.145866934,2.574007618,-6.53,7.47,2976,0.453047716,2.720318199,-6.51,8.59,2976,0
BOYM,1/1/16,0.304660617,2.505823034,-6.62,7.06,2976,0.851441532,2.644885811,-6.52,7.86,2976,0
BOYM,2/1/16,-6.605104167,4.558487975,-17.95,3.54,2784,-6.323178886,4.722945638,-18.18,4.23,2784,0
BOYM,3/1/16,-18.74211357,4.855791298,-30.27,-7.6,2976,-19.04662634,5.065362978,-31.17,-7.9,2976,0
BOYM,4/1/16,-28.49291665,9.498599871,-40.04,-4.77,2880,-29.26285764,9.713645632,-41.01,-5.09,2880,0
BOYM,5/1/16,-25.30035283,9.894989078,-41.8,-4.14,2976,-25.90001007,10.08808358,-42.72,-4.61,2976,0
BOYM,6/1/16,-30.43352777,7.510058893,-43.28,-11.82,2880,-31.06794099,7.623076732,-43.99,-12.27,2880,0
BOYM,7/1/16,-36.97738151,9.748915799,-47.96,-9.87,2975,-37.7977378,9.883386243,-49.11,-10.19,2975,0
BOYM,8/1/16,-28.01227513,11.54801827,-44.39,-3.27,2646,-28.75644743,11.69323345,-45.19,-3.95,2646,0
BOYM,9/1/16,-28.88614042,1.226350318,-32.47,-27.3,57,-29.42842102,1.486085053,-33.35,-27.73,57,0
BOYM,11/1/16,-6.726300388,3.611933397,-16.22,2.19,1265,-6.297557307,3.640775271,-16.19,2.28,1265,0
BOYM,12/1/16,-0.579193548,2.726828113,-9.18,7.05,2976,0.029448925,2.878737813,-9.08,7.99,2976,0
BOYM,1/1/17,-0.333195563,2.370802277,-7.1,5.13,2976,0.226048389,2.606384644,-7.2,6.22,2976,0
BOYM,2/1/17,-6.464765624,4.469939629,-17.56,3.21,2688,-6.139691219,4.753515162,-18.02,3.82,2688,0
BOYM,3/1/17,-16.17850134,5.985918969,-30.65,-2.3,2976,-16.42828629,6.158003878,-31.4,-2.34,2976,0
BOYM,4/1/17,-21.69897222,6.517968826,-36.15,-8.3,2880,-22.42978819,6.636017526,-37.15,-8.97,2880,0
BOYM,5/1/17,-19.37821909,8.432808429,-34.27,-1.45,2976,-19.93783602,8.674151706,-35.14,-1.73,2976,0
BOYM,6/1/17,-25.66519098,10.13061807,-43.57,-6.01,2880,-26.33339933,10.38686176,-44.47,-6.47,2880,0
BOYM,7/1/17,-26.30664315,8.237747491,-40.32,-7.54,2976,-26.98075603,8.422698759,-41.08,-8.24,2976,0
BOYM,8/1/17,-25.72953292,10.96434865,-43.99,-5.05,2976,-26.3342305,11.21828251,-44.85,-5.48,2976,0
BOYM,9/1/17,-28.4255208,7.696687058,-41.25,-5.95,2880,-28.99582987,7.761628436,-42.06,-6.51,2880,0
BOYM,10/1/17,-14.80689179,5.732331269,-28.51,-2.54,2976,-14.78852485,5.826935225,-28.57,-2.25,2976,0
BOYM,11/1/17,-8.824734879,5.24027698,-19.78,4.81,2414,-8.352916321,5.353248211,-19.88,6.13,2414,0
BOYM,12/1/17,-2.971820962,2.56114139,-8.98,2.88,1307,-2.393504209,2.668703269,-8.64,3.7,1307,0
BOYM,1/1/18,-4.108951964,1.429005841,-7.34,-1,229,-3.600262014,1.653559144,-7.2,-0.22,229,0
BOYM,2/1/18,-8.12559152,4.029461362,-19.68,-0.89,2688,-7.791473215,4.281088095,-19.94,0.21,2688,0
BOYM,3/1/18,-15.33541667,6.247144322,-30.24,-2.16,2976,-15.64730175,6.330781336,-30.51,-2.21,2976,0
BOYM,4/1/18,-20.31566319,8.077638746,-35.58,-1.77,2880,-20.93267708,8.257211719,-36.39,-2.19,2880,0
BOYM,5/1/18,-27.50209339,9.466488271,-41.09,-5.62,2976,-28.19054769,9.611522413,-41.81,-5.86,2976,0
BOYM,6/1/18,-20.45856944,6.492708651,-40.13,-7.21,2880,-20.95660763,6.601584127,-40.87,-7.53,2880,0
BOYM,7/1/18,-25.93333672,12.15412888,-45.94,-6.97,2976,-26.51953629,12.37426596,-46.72,-7.37,2976,0
BOYM,8/1/18,-28.93628693,12.23214086,-44.91,-1.1,2976,-29.62351816,12.35879317,-45.92,-1.53,2976,0
BOYM,9/1/18,-25.46482293,7.741028516,-41.14,-8.06,2880,-25.89065276,7.8914977,-41.85,-8.35,2880,0
BOYM,10/1/18,-12.78561492,6.940386368,-28.82,1.07,2976,-12.7335047,7.019084623,-29.41,1.08,2976,0
BOYM,11/1/18,-5.372174519,3.901508554,-16.26,4.02,2865,-4.886666664,4.105556392,-16.48,5.43,2865,0
BOYM,12/1/18,0.403545028,2.551648151,-6.7,6.96,2976,1.037631046,2.721846664,-6.43,7.92,2976,0
BOYM,1/1/19,-1.105072414,2.286556727,-6.7,5.58,2900,-0.473610347,2.520144143,-6.47,6.49,2900,0
BOYM,2/1/19,-5.549668898,3.020084181,-15.08,0.86,2688,-5.190498511,3.293342391,-15.31,1.87,2688,0
BOYM,3/1/19,-15.29501344,5.708794296,-30.09,-2.98,2976,-15.50569892,5.915481097,-30.73,-3.26,2976,0
BOYM,4/1/19,-21.79622222,9.98064182,-38.12,-4.55,2880,-22.48923953,10.19880569,-39.18,-4.95,2880,0
BOYM,5/1/19,-19.76174395,7.208447065,-34.71,-6.92,2976,-20.34981183,7.399794349,-35.64,-7.14,2976,0
BOYM,6/1/19,-23.40381251,9.418789352,-42.9,-6.8,2880,-23.90241321,9.641803695,-43.75,-7.14,2880,0
BOYM,7/1/19,-21.5611727,9.691176983,-37.45,0.85,2976,-22.16144825,9.881561972,-38.57,0.55,2976,0
BOYM,8/1/19,-24.47093412,10.71523803,-43.21,-7.2,2976,-25.12549057,10.94694902,-44.34,-7.44,2976,0
BOYM,9/1/19,-24.03651733,8.476313634,-39.46,-7.91,2880,-24.62085763,8.668105887,-40.13,-8.3,2880,0
BOYM,10/1/19,-15.93946909,4.817794365,-28.79,-6.28,2976,-15.83344422,5.081056898,-29.27,-5.11,2976,0
BOYM,11/1/19,-4.707125964,3.86132299,-14.68,3.52,2874,-4.172192067,4.082463577,-14.65,4.68,2874,0
BOYM,12/1/19,-0.780816533,2.412533014,-8.03,4.99,2976,-0.089862231,2.655381248,-8.18,6.19,2976,0
BOYM,1/1/20,-1.066874999,2.66047736,-7.65,6.69,2976,-0.303188845,2.927239229,-7.44,7.99,2976,0
BOYM,2/1/20,-5.10489224,5.280802899,-19.46,6.32,2784,-4.783150144,5.475337152,-19.36,6.85,2784,0
BOYM,3/1/20,-18.52099462,5.664693666,-31.22,-6.12,2976,-18.70464381,5.777061489,-31.85,-6.16,2976,0
BOYM,4/1/20,-20.57652082,6.573231412,-35.46,-5.2,2880,-21.10510071,6.756549958,-36.01,-5.62,2880,0
BOYM,5/1/20,-24.26925738,7.201472898,-36.53,-7.27,2976,-24.98712701,7.343620653,-37.49,-7.58,2976,0
BOYM,6/1/20,-24.72987849,10.83618613,-44.26,-3.82,2880,-25.32190972,11.09784719,-45.48,-4.14,2880,0
BOYM,7/1/20,-24.77563171,9.621392834,-41.8,-0.51,2976,-25.41042002,9.836375795,-42.69,-0.87,2976,0
BOYM,8/1/20,-23.50398857,7.921592322,-43.97,-4.79,2976,-23.9825336,8.065852714,-44.79,-5.08,2976,0
BOYM,9/1/20,-25.09760764,10.48667627,-45.06,-3.77,2880,-25.55755208,10.63651482,-45.76,-4.06,2880,0
BOYM,10/1/20,-14.79749665,5.618713453,-27.12,-1.51,2976,-14.67469422,5.666448806,-27.26,-0.85,2976,0
BOYM,11/1/20,-6.66986458,5.083127474,-18.05,2.2,2880,-6.031697916,5.357580995,-18.12,3.67,2880,0
BOYM,12/1/20,0.436290323,2.156660528,-6.89,5.5,2976,1.147920027,2.452474205,-6.14,7.23,2976,0